Weather History for St. Charles, MO

Change the Weather History Date:

Sunday, November 4, 2012

  Actual Average (KSTL) Record (KSTL)
Temperature  
Mean Temperature 38 °F 52 °F  
Max Temperature 50 °F 61 °F 82 °F (1978)
Min Temperature 28 °F 43 °F 18 °F (1951)
Degree Days  
Heating Degree Days 27 13  
Month to date heating degree days 50  
Since 1 July heating degree days 326  
Cooling Degree Days 0 0  
Month to date cooling degree days 0  
Year to date cooling degree days 1642  
Moisture  
Dew Point 33 °F    
Average Humidity 81    
Maximum Humidity 100    
Minimum Humidity 54    
Precipitation  
Precipitation 0.00 in 0.12 in 1.35 in (1990)
Month to date precipitation 0.47  
Year to date precipitation 34.68  
Snow  
Snow 0.00 in 0.00 in T in (1992)
Month to date snowfall 0.0  
Since 1 July snowfall 0.0  
Since 1 September snowfall 0.0  
Snow Depth -    
Sea Level Pressure  
Sea Level Pressure 30.23 in    
Wind  
Wind Speed 2 mph (NE)    
Max Wind Speed 8 mph    
Max Gust Speed -    
Visibility 7 miles    
Events Fog    
T = Trace of Precipitation, MM = Missing Value Source: NWS Daily Summary

Daily Weather History Graph

Daily Weather History Graph

Search for Another Location

Airport:

Trip Planner

Search our weather history database for the weather conditions in past years. The results will help you decide how hot, cold, wet, or windy it might be!

Date:

Astronomy

Nov. 04, 2012 Rise Set
Actual Time 6:32 AM CST 4:57 PM CST
Civil Twilight 6:04 AM CST 5:25 PM CST
Nautical Twilight 5:33 AM CST 5:56 PM CST
Astronomical Twilight 5:02 AM CST 6:27 PM CST
Moon 9:35 PM CST (11/4) 11:15 AM CST (11/4)
Length of Visible Light 11h 20m
Length of Day
10h 24m
Waning Gibbous, 72% of the Moon is Illuminated
Nov 4
Waning Gibbous
Nov 6
Last Quarter
Nov 13
New
Nov 20
First Quarter
Nov 28
Full

Hourly Weather History & Observations

Time (CST) Temp. Windchill Dew Point Humidity Pressure Visibility Wind Dir Wind Speed Gust Speed Precip Events Conditions
12:54 AM 37.0 °F 34.5 °F 33.1 °F 86% 30.22 in 10.0 mi ENE 3.5 mph - N/A   Clear
1:54 AM 35.1 °F - 32.0 °F 89% 30.21 in 9.0 mi Calm Calm - N/A   Clear
1:54 AM 34.0 °F - 30.9 °F 89% 30.23 in 9.0 mi Calm Calm - N/A   Clear
2:54 AM 33.1 °F - 30.0 °F 89% 30.23 in 9.0 mi Calm Calm - N/A   Clear
3:54 AM 32.0 °F 28.7 °F 30.0 °F 92% 30.24 in 4.0 mi NNW 3.5 mph - N/A   Clear
4:14 AM 30.2 °F - 28.4 °F 93% 30.23 in 2.5 mi Calm Calm - N/A   Clear
4:25 AM 30.2 °F - 30.2 °F 100% 30.23 in 5.0 mi Calm Calm - N/A   Clear
4:54 AM 35.1 °F - 33.1 °F 92% 30.23 in 9.0 mi Calm Calm - N/A   Clear
5:54 AM 30.9 °F - 28.0 °F 89% 30.24 in 8.0 mi Calm Calm - N/A   Clear
6:35 AM 32.0 °F 26.4 °F 30.2 °F 93% 30.24 in 1.8 mi West 5.8 mph - N/A   Partly Cloudy
6:42 AM 30.2 °F 25.4 °F 30.2 °F 100% 30.24 in 0.2 mi West 4.6 mph - N/A Fog Light Freezing Fog
6:51 AM 32.0 °F 27.5 °F 30.2 °F 93% 30.25 in 0.2 mi West 4.6 mph - N/A Fog Fog
6:54 AM 32.0 °F 27.5 °F 30.9 °F 96% 30.25 in 0.2 mi West 4.6 mph - N/A Fog Fog
7:24 AM 28.4 °F - 28.4 °F 100% 30.25 in 0.2 mi Calm Calm - N/A Fog Light Freezing Fog
7:54 AM 32.0 °F - 32.0 °F 100% 30.28 in 0.2 mi Calm Calm - N/A Fog Fog
8:21 AM 37.4 °F - 35.6 °F 93% 30.27 in 2.0 mi Calm Calm - N/A   Mostly Cloudy
8:26 AM 37.4 °F - 35.6 °F 93% 30.28 in 6.0 mi Calm Calm - N/A   Scattered Clouds
8:54 AM 39.0 °F 36.8 °F 36.0 °F 89% 30.28 in 10.0 mi East 3.5 mph - N/A   Clear
9:54 AM 44.1 °F 39.5 °F 34.0 °F 68% 30.26 in 10.0 mi East 8.1 mph - N/A   Clear
10:54 AM 46.0 °F 43.1 °F 34.0 °F 63% 30.25 in 10.0 mi NE 5.8 mph - N/A   Clear
11:54 AM 48.0 °F - 35.1 °F 61% 30.24 in 10.0 mi Calm Calm - N/A   Clear
12:54 PM 48.9 °F - 33.1 °F 54% 30.22 in 10.0 mi Calm Calm - N/A   Mostly Cloudy
1:54 PM 48.9 °F - 34.0 °F 56% 30.21 in 10.0 mi NE 5.8 mph - N/A   Overcast
2:54 PM 48.9 °F - 33.1 °F 54% 30.20 in 10.0 mi NE 3.5 mph - N/A   Overcast
3:54 PM 48.9 °F - 34.0 °F 56% 30.19 in 10.0 mi ENE 5.8 mph - 0.00 in   Mostly Cloudy
4:54 PM 46.0 °F 44.8 °F 34.0 °F 63% 30.17 in 10.0 mi NE 3.5 mph - N/A   Mostly Cloudy
5:54 PM 44.1 °F - 34.0 °F 68% 30.18 in 10.0 mi Calm Calm - N/A   Scattered Clouds
6:54 PM 42.1 °F 40.2 °F 35.1 °F 76% 30.18 in 10.0 mi NE 3.5 mph - N/A   Clear
7:54 PM 42.1 °F 40.2 °F 33.1 °F 70% 30.18 in 10.0 mi NE 3.5 mph - N/A   Clear
8:54 PM 42.1 °F 37.1 °F 35.1 °F 76% 30.17 in 9.0 mi East 8.1 mph - N/A   Mostly Cloudy
9:54 PM 42.1 °F 38.4 °F 35.1 °F 76% 30.17 in 10.0 mi ESE 5.8 mph - N/A   Overcast
10:54 PM 43.0 °F - 35.1 °F 74% 30.18 in 10.0 mi Calm Calm - N/A   Overcast